EW2046 Weather Reports


time (UTC)temp
C
wind
direction
speed
KPH
gust
KPH
rain 1hr
cm
rain 24hr
cm
rain mn
cm
humidity
%
barometer
mb
20260506203036 21 194 4.8 8.0 0.00 0.00 0.00 61 1017.4
20260506201535 20 162 3.2 9.7 0.00 0.00 0.00 63 1017.6
20260506200035 20 153 3.2 9.7 0.00 0.00 0.00 63 1017.7
20260506194533 20 213 1.6 11.3 0.00 0.00 0.00 60 1017.7
20260506193034 21 224 3.2 8.0 0.00 0.00 0.00 59 1017.8
20260506191535 21 171 1.6 6.4 0.00 0.00 0.00 61 1017.8
20260506190030 20 172 3.2 9.7 0.00 0.00 0.00 61 1017.9
20260506184531 20 288 1.6 9.7 0.00 0.00 0.00 62 1018.0
20260506183025 20 251 1.6 11.3 0.00 0.00 0.00 63 1018.1
20260506181525 20 194 4.8 9.7 0.00 0.00 0.00 64 1018.3
20260506180026 20 213 3.2 9.7 0.00 0.00 0.00 65 1018.3
20260506174520 19 166 3.2 9.7 0.00 0.00 0.00 66 1018.3
20260506173018 19 177 1.6 8.0 0.00 0.00 0.00 68 1018.2
20260506171518 18 227 1.6 11.3 0.00 0.00 0.00 68 1018.3
20260506170016 18 126 1.6 8.0 0.00 0.00 0.00 68 1018.2
20260506164517 18 113 0.0 4.8 0.00 0.00 0.00 70 1018.1
20260506163009 17 38 1.6 6.4 0.00 0.00 0.00 73 1018.1
20260506161503 16 155 1.6 6.4 0.00 0.00 0.00 78 1018.1
20260506160059 15 175 0.0 4.8 0.00 0.00 0.00 83 1018.0
20260506154612 15 184 0.0 3.2 0.00 0.00 0.00 88 1018.0
20260506153053 13 186 0.0 3.2 0.00 0.00 0.00 91 1018.0
20260506151551 12 234 0.0 0.0 0.00 0.00 0.00 93 1017.9
20260506150052 11 77 0.0 0.0 0.00 0.00 0.00 92 1018.1
20260506144559 11 77 0.0 0.0 0.00 0.00 0.00 92 1017.9
20260506143048 10 77 0.0 0.0 0.00 0.00 0.00 92 1017.8
20260506141547 10 77 0.0 0.0 0.00 0.00 0.00 91 1017.8
20260506140057 10 77 0.0 0.0 0.00 0.00 0.00 91 1017.7
20260506134543 9 77 0.0 0.0 0.00 0.00 0.00 91 1017.5
20260506133047 9 77 0.0 0.0 0.00 0.00 0.00 90 1017.4
20260506131541 9 78 0.0 0.0 0.00 0.00 0.00 90 1017.2
20260506130042 9 78 0.0 0.0 0.00 0.00 0.00 90 1017.2
20260506124538 9 78 0.0 0.0 0.00 0.00 0.00 89 1017.1
20260506123036 9 78 0.0 0.0 0.00 0.00 0.00 89 1017.1
20260506121535 10 78 0.0 0.0 0.00 0.00 0.00 89 1017.0
20260506120038 10 78 0.0 0.0 0.00 0.00 0.00 88 1017.1
20260506114532 10 78 0.0 0.0 0.00 0.00 0.00 88 1017.0
20260506113030 10 78 0.0 0.0 0.00 0.00 0.00 87 1017.1
20260506111528 10 78 0.0 0.0 0.00 0.00 0.00 87 1017.0
20260506110026 10 78 0.0 0.0 0.00 0.00 0.00 86 1016.8
20260506104524 10 108 0.0 0.0 0.00 0.00 0.00 86 1016.7
20260506103027 11 108 0.0 0.0 0.00 0.00 0.00 85 1016.7
20260506101528 11 108 0.0 0.0 0.00 0.00 0.00 85 1016.6
20260506100029 11 108 0.0 0.0 0.00 0.00 0.00 84 1016.5
20260506094519 12 108 0.0 0.0 0.00 0.00 0.00 84 1016.6
20260506093017 12 108 0.0 0.0 0.00 0.00 0.00 83 1016.5
20260506091512 12 108 0.0 0.0 0.00 0.00 0.00 82 1016.6
20260506090010 12 108 0.0 0.0 0.00 0.00 0.00 81 1016.6
20260506084510 13 108 0.0 0.0 0.00 0.00 0.00 81 1016.8
20260506083009 13 109 0.0 0.0 0.00 0.00 0.00 80 1016.9
20260506081504 13 109 0.0 0.0 0.00 0.00 0.00 79 1016.9
20260506073058 14 119 0.0 1.6 0.00 0.00 0.00 77 1016.6
20260506071558 14 37 0.0 1.6 0.00 0.00 0.00 76 1016.6
20260506061555 15 63 1.6 12.9 0.00 0.00 0.00 73 1016.0
20260506044548 16 333 1.6 6.4 0.00 0.00 0.00 66 1015.2
20260506043042 16 93 1.6 14.5 0.00 0.00 0.00 65 1015.1
20260506041541 17 40 3.2 9.7 0.00 0.00 0.00 65 1014.8
20260506040041 17 140 0.0 11.3 0.00 0.00 0.00 64 1014.3
20260506034536 17 30 4.8 9.7 0.00 0.00 0.00 63 1014.2
20260506033040 17 11 4.8 14.5 0.00 0.00 0.00 63 1013.9
20260506031636 17 258 3.2 14.5 0.00 0.00 0.00 62 1013.7
20260506030035 18 5 4.8 12.9 0.00 0.00 0.00 60 1013.3
20260506024535 18 60 1.6 12.9 0.00 0.00 0.00 58 1013.2
20260506023044 19 290 0.0 6.4 0.00 0.00 0.00 55 1013.1
20260506021535 20 277 0.0 6.4 0.00 0.00 0.00 54 1013.1
20260506020035 20 317 1.6 8.0 0.00 0.00 0.00 53 1012.9
20260506014537 21 103 0.0 6.4 0.00 0.00 0.00 53 1012.8
20260506013032 21 178 0.0 4.8 0.00 0.00 0.00 53 1012.6
20260506011533 21 223 0.0 3.2 0.00 0.00 0.00 50 1012.5
20260506010045 21 186 0.0 1.6 0.00 0.00 0.00 52 1012.4
20260506004530 21 188 0.0 4.8 0.00 0.00 0.00 50 1012.4
20260506003030 21 190 1.6 6.4 0.00 0.00 0.00 52 1012.4
20260506001529 22 162 1.6 6.4 0.00 0.00 0.00 50 1012.3
20260506000029 22 163 0.0 1.6 0.00 0.00 0.00 49 1012.2
20260505234544 22 207 3.2 8.0 0.00 0.00 0.00 48 1012.0
20260505233035 22 291 3.2 17.7 0.00 0.00 0.00 47 1012.1
20260505231531 22 159 1.6 8.0 0.00 0.00 0.00 48 1012.0
20260505230026 22 282 3.2 9.7 0.00 0.00 0.00 48 1012.2
20260505224523 22 195 1.6 9.7 0.00 0.00 0.00 49 1012.3
20260505223022 22 119 0.0 9.7 0.00 0.00 0.00 50 1012.5
20260505221523 22 119 1.6 8.0 0.00 0.00 0.00 51 1012.7
20260505220021 22 78 3.2 16.1 0.00 0.00 0.00 47 1012.6
20260505214536 21 188 0.0 12.9 0.00 0.00 0.00 54 1012.8
20260505213020 21 204 3.2 9.7 0.00 0.00 0.00 55 1013.1
20260505211518 21 249 1.6 8.0 0.00 0.00 0.00 55 1013.2
20260505210019 21 155 1.6 11.3 0.00 0.00 0.00 54 1013.3
20260505204519 21 202 1.6 11.3 0.00 0.00 0.00 52 1013.1